Location: *
(60.1759°S, 155.0663°W)
Time: 14:12:56
(UTC+00:00)

Cosmos 1867 - Pass Details

Date: 17 September 2019
Orbit: 775 x 800 km, 65.0° (Epoch: 20 October)

Event Time Altitude Azimuth Distance (km) Brightness Sun altitude
Exits shadow 13:53:48 - 237° (WSW) 2,590 6.0 -18.7°
Reaches altitude 10° 13:54:25 10° 239° (WSW) 2,363 5.8 -18.6°
Maximum altitude 13:59:36 47° 311° (NW) 1,042 3.7 -18.1°
Drops below altitude 10° 14:04:45 10° 23° (NNE) 2,351 6.0 -17.5°
Sets 14:07:14 0° 28° (NNE) 3,277 6.8 -17.2°
